COSMOS 1275 DEB, 39968

Orbit data source: Space-Track

COSMOS 1275 DEB, 39968 is space debris in LEO originally from a launch on Thu, 04 Jun 1981 UTC launched from the Plesetsk Missile And Space Complex (PKMTR). Debris objects in space refer to the collection of defunct objects orbiting the Earth. Examples of debris include non-operational satellites, rocket bodies, and fragments generated from explosions, collisions, or faulty payload assembly.

Loading next visibility...
Identifier
39968, 1981-053PE
Orbit
LEO
Country
Flag of CISCIS
Related business
Manufacturer
Unknown
Mission
Spacecraft
Bus & Motor
Unknown
Mass
Unknown
Launch date (UTC)
1981-06-04 (45 years ago)
Launch vehicle
Unknown
Launch site
Plesetsk Missile And Space Complex (PKMTR)
Object type
Payload
Rocket body
Debris
Shape & HBR
Unknown shape, 0.1 m
Radar Cross Section
Small (<0.1 m²)

Expand to show TLE details & history
Last TLE update: 6 days ago

TLE from 6 days ago
0 COSMOS 1275 DEB
1 39968U 81053PE  25348.09474983  .00000771  00000-0  72281-3 0  9996
2 39968  83.1455 120.6367 0078951 210.4986 149.1570 13.79062650 36351
Epoch: 2025-12-14T02:16Z
TLE epoch observation values (Epoch: 2025-12-14T02:16:26.385Z)
Latitude
-0.00002°
Longitude
3.51416°
Altitude
1,020.043 km
Speed
7.317 km/s
True Right ascension
08h 02m 32s
True Declination
0° 00' 00"
Sunlit
Object was in full shadow at epoch
Visualization orbit readout
Latitude
Unknown
Longitude
Unknown
Altitude
Unknown
Speed
Unknown
Apparent Right ascension
Unknown
Apparent Declination
Unknown
Sunlit
N/A
Visualization observer readout
Local Sidereal Time
16:01:21
Azimuth
Unknown
Elevation
Unknown
Doppler factor
Unknown
Orbital elements
Apogee altitude
1,022.318 km
Perigee altitude
906.379 km
Semi-major axis
7,342.486 km
Eccentricity
0.0079
Inclination
83.1455°
RAAN
120.6367°
Arg. of periapsis
210.4986°
True anomaly
149.61693°
Mean anomaly
149.157°
Eccentric anomaly
149.38735°
Mean motion
3.44968 °/min
Orbital period
104.36 mins
BSTAR
0.00072281
Loading maneuver chart data...
Computing Atmospheric mass density...

Documentation

Showing up to 5 results
|